AFL4322 UIII-UNOO

Flight info

Callsign AFL4322
Flight time N/A
Altitude 40000
Route BOGRA5D BOGRA A815 TUTEK M97 KESUM R229 NN G828 SZ A487 URUKI A844 RUMOD RUMOD6B
Aircraft A333/H-SDE3GHIJ2J3J5M1RVWXY/LB2D1

Departure

Time 2026-05-09 10:42
Airport Irkutsk International Airport (UIII)

Arrival

Time N/A
Airport Omsk Central Airport (UNOO)
Time Latitude Longitude Altitude Speed Heading
2026-05-09 10:04 52.27230 104.36327 1600 ft 0 kts 203°
2026-05-09 10:30 52.27230 104.36328 1600 ft 0 kts 203°
2026-05-09 10:30 52.27228 104.36327 1600 ft 1 kts 203°
2026-05-09 10:31 52.27220 104.36321 1601 ft 0 kts 202°
2026-05-09 10:31 52.27209 104.36316 1601 ft 2 kts 191°
2026-05-09 10:31 52.27193 104.36317 1602 ft 1 kts 167°
2026-05-09 10:31 52.27181 104.36329 1603 ft 1 kts 139°
2026-05-09 10:32 52.27166 104.36367 1604 ft 8 kts 119°
2026-05-09 10:32 52.27134 104.36481 1606 ft 12 kts 112°
2026-05-09 10:32 52.27109 104.36597 1608 ft 9 kts 109°
2026-05-09 10:32 52.27091 104.36681 1610 ft 6 kts 109°
2026-05-09 10:33 52.27076 104.36750 1611 ft 6 kts 109°
2026-05-09 10:33 52.27059 104.36829 1612 ft 7 kts 109°
2026-05-09 10:33 52.27042 104.36906 1613 ft 6 kts 109°
2026-05-09 10:33 52.27031 104.36958 1614 ft 4 kts 110°
2026-05-09 10:34 52.27002 104.37086 1615 ft 13 kts 103°
2026-05-09 10:34 52.26962 104.37425 1616 ft 13 kts 112°
2026-05-09 10:34 52.26927 104.37556 1618 ft 11 kts 114°
2026-05-09 10:35 52.26898 104.37663 1619 ft 9 kts 114°
2026-05-09 10:35 52.26868 104.37772 1621 ft 11 kts 113°
2026-05-09 10:35 52.26834 104.37901 1623 ft 12 kts 114°
2026-05-09 10:35 52.26800 104.38025 1625 ft 10 kts 113°
2026-05-09 10:36 52.26776 104.38117 1628 ft 7 kts 113°
2026-05-09 10:36 52.26762 104.38170 1629 ft 3 kts 113°
2026-05-09 10:36 52.26749 104.38217 1630 ft 7 kts 112°
2026-05-09 10:36 52.26711 104.38367 1633 ft 20 kts 113°
2026-05-09 10:37 52.26643 104.38619 1639 ft 25 kts 114°
2026-05-09 10:37 52.26576 104.38872 1643 ft 23 kts 113°
2026-05-09 10:37 52.26518 104.39093 1650 ft 19 kts 112°
2026-05-09 10:37 52.26471 104.39275 1653 ft 16 kts 112°
2026-05-09 10:38 52.26430 104.39431 1655 ft 14 kts 113°
2026-05-09 10:38 52.26389 104.39584 1656 ft 15 kts 114°
2026-05-09 10:38 52.26341 104.39759 1656 ft 18 kts 114°
2026-05-09 10:38 52.26280 104.39985 1652 ft 28 kts 113°
2026-05-09 10:39 52.26197 104.40298 1652 ft 30 kts 113°
2026-05-09 10:39 52.26117 104.40598 1656 ft 27 kts 112°
2026-05-09 10:39 52.26046 104.40870 1662 ft 24 kts 114°
2026-05-09 10:39 52.26006 104.41025 1666 ft 8 kts 108°
2026-05-09 10:40 52.26001 104.41097 1668 ft 3 kts 81°
2026-05-09 10:40 52.26025 104.41167 1671 ft 11 kts 43°
2026-05-09 10:40 52.26088 104.41228 1671 ft 7 kts 24°
2026-05-09 10:40 52.26138 104.41265 1670 ft 7 kts 24°
2026-05-09 10:41 52.26205 104.41286 1670 ft 13 kts 348°
2026-05-09 10:41 52.26244 104.41229 1668 ft 0 kts 296°
2026-05-09 10:41 52.26265 104.41151 1666 ft 29 kts 293°
2026-05-09 10:41 52.26450 104.40462 1653 ft 101 kts 292°
2026-05-09 10:42 52.26809 104.39095 1637 ft 160 kts 294°
2026-05-09 10:42 52.27272 104.37351 2316 ft 170 kts 290°
2026-05-09 10:42 52.27722 104.35717 3219 ft 160 kts 291°
2026-05-09 10:42 52.28169 104.34032 3933 ft 166 kts 292°
2026-05-09 10:43 52.28661 104.32163 4262 ft 200 kts 290°
2026-05-09 10:43 52.29229 104.29997 4424 ft 208 kts 292°
2026-05-09 10:43 52.30128 104.28133 4644 ft 222 kts 328°
2026-05-09 10:43 52.31575 104.27371 5602 ft 220 kts 348°
2026-05-09 10:44 52.32986 104.26726 6576 ft 212 kts 340°
2026-05-09 10:44 52.34395 104.25965 6911 ft 224 kts 340°
2026-05-09 10:44 52.35914 104.25098 6900 ft 243 kts 338°
2026-05-09 10:44 52.37650 104.24104 6983 ft 285 kts 339°
2026-05-09 10:45 52.39600 104.22974 6978 ft 303 kts 340°
2026-05-09 10:46 52.47364 104.18454 7076 ft 280 kts 339°
2026-05-09 10:46 52.49220 104.17374 7124 ft 282 kts 339°
2026-05-09 10:46 52.51067 104.16296 7424 ft 281 kts 339°
2026-05-09 10:46 52.52912 104.15218 7650 ft 280 kts 339°
2026-05-09 10:47 52.54745 104.14148 8131 ft 281 kts 339°
2026-05-09 10:47 52.56582 104.13072 8596 ft 281 kts 339°
2026-05-09 10:47 52.58416 104.11999 9054 ft 282 kts 338°
2026-05-09 10:47 52.60272 104.10911 9519 ft 282 kts 338°
2026-05-09 10:48 52.62101 104.09837 9973 ft 282 kts 338°
2026-05-09 10:48 52.63942 104.08754 10424 ft 282 kts 338°
2026-05-09 10:48 52.65780 104.07674 10880 ft 282 kts 338°
2026-05-09 10:48 52.67635 104.06580 11276 ft 285 kts 338°
2026-05-09 10:49 52.69506 104.05479 11603 ft 281 kts 338°
2026-05-09 10:49 52.71353 104.04392 12136 ft 282 kts 338°
2026-05-09 10:49 52.73146 104.03336 12628 ft 284 kts 338°
2026-05-09 10:49 52.74710 104.02411 13051 ft 286 kts 338°
2026-05-09 10:50 52.76617 104.01283 13560 ft 285 kts 338°
2026-05-09 10:50 52.78474 104.00186 14071 ft 287 kts 338°
2026-05-09 10:50 52.80351 103.99075 14594 ft 286 kts 338°
2026-05-09 10:50 52.82226 103.97964 15095 ft 285 kts 338°
2026-05-09 10:51 52.84076 103.96866 15592 ft 286 kts 337°
2026-05-09 10:51 52.85966 103.95744 16111 ft 287 kts 338°
2026-05-09 10:51 52.87840 103.94628 16550 ft 293 kts 337°
2026-05-09 10:51 52.89786 103.93469 16927 ft 304 kts 338°
2026-05-09 10:52 52.91798 103.92272 17371 ft 312 kts 337°
2026-05-09 10:52 52.93857 103.91044 17873 ft 318 kts 338°
2026-05-09 10:52 52.95934 103.89805 18403 ft 323 kts 338°
2026-05-09 10:52 52.98071 103.88530 18956 ft 327 kts 338°
2026-05-09 10:53 53.00214 103.87247 19522 ft 330 kts 338°
2026-05-09 10:53 53.02368 103.85958 20079 ft 332 kts 338°
2026-05-09 10:53 53.04548 103.84653 20642 ft 334 kts 338°
2026-05-09 10:53 53.06728 103.83345 21199 ft 336 kts 338°
2026-05-09 10:54 53.08925 103.82026 21759 ft 337 kts 338°
2026-05-09 10:54 53.11119 103.80707 22304 ft 338 kts 338°
2026-05-09 10:54 53.13337 103.79373 22835 ft 339 kts 338°
2026-05-09 10:54 53.15550 103.77981 23343 ft 339 kts 334°
2026-05-09 10:55 53.17652 103.76335 23830 ft 340 kts 332°
2026-05-09 10:55 53.19790 103.74656 24316 ft 341 kts 332°
2026-05-09 10:55 53.21949 103.72964 24796 ft 343 kts 333°
2026-05-09 10:55 53.24092 103.71285 25249 ft 344 kts 333°
2026-05-09 10:56 53.26264 103.69583 25689 ft 346 kts 333°
2026-05-09 10:56 53.28439 103.67879 26118 ft 348 kts 333°
2026-05-09 10:56 53.30633 103.66157 26547 ft 350 kts 333°
2026-05-09 10:56 53.32822 103.64438 26959 ft 353 kts 333°
2026-05-09 10:57 53.35051 103.62685 27382 ft 355 kts 333°
2026-05-09 10:57 53.37271 103.60938 27785 ft 357 kts 333°
2026-05-09 10:57 53.39542 103.59146 28200 ft 359 kts 333°
2026-05-09 10:57 53.41770 103.57388 28615 ft 361 kts 333°
2026-05-09 10:58 53.44071 103.55570 29003 ft 363 kts 333°
2026-05-09 10:58 53.46355 103.53763 29396 ft 365 kts 333°
2026-05-09 10:58 53.48616 103.51958 29770 ft 366 kts 331°
2026-05-09 10:58 53.50627 103.49416 30085 ft 361 kts 304°
2026-05-09 10:59 53.51761 103.45784 30381 ft 348 kts 277°
2026-05-09 10:59 53.52174 103.41832 30733 ft 347 kts 274°
2026-05-09 10:59 53.52634 103.37807 31112 ft 349 kts 276°
2026-05-09 10:59 53.53140 103.33810 31489 ft 351 kts 276°
2026-05-09 11:00 53.53656 103.29862 31844 ft 352 kts 276°
2026-05-09 11:00 53.54192 103.25835 32192 ft 352 kts 276°
2026-05-09 11:00 53.54729 103.21808 32531 ft 353 kts 276°
2026-05-09 11:00 53.55268 103.17773 32874 ft 354 kts 276°
2026-05-09 11:01 53.55805 103.13739 33193 ft 355 kts 276°
2026-05-09 11:01 53.56343 103.09692 33485 ft 355 kts 277°
2026-05-09 11:01 53.56886 103.05598 33762 ft 356 kts 277°
2026-05-09 11:01 53.57418 103.01585 34027 ft 357 kts 276°
2026-05-09 11:02 53.57956 102.97507 34293 ft 358 kts 276°
2026-05-09 11:02 53.58492 102.93426 34553 ft 358 kts 277°
2026-05-09 11:02 53.59036 102.89284 34804 ft 359 kts 277°
2026-05-09 11:02 53.59572 102.85184 35066 ft 359 kts 277°
2026-05-09 11:03 53.60105 102.81097 35363 ft 359 kts 277°
2026-05-09 11:03 53.60634 102.77029 35627 ft 360 kts 277°
2026-05-09 11:03 53.60831 102.75513 35728 ft 360 kts 277°
2026-05-09 11:03 53.61208 102.72608 35914 ft 359 kts 277°
2026-05-09 11:04 53.61739 102.68501 36181 ft 359 kts 277°
2026-05-09 11:04 53.62265 102.64420 36418 ft 359 kts 277°
2026-05-09 11:04 53.62789 102.60334 36648 ft 359 kts 277°
2026-05-09 11:04 53.63274 102.56558 36855 ft 359 kts 277°
2026-05-09 11:05 53.63797 102.52469 37058 ft 359 kts 277°
2026-05-09 11:05 53.64319 102.48381 37270 ft 360 kts 277°
2026-05-09 11:05 53.64838 102.44282 37468 ft 360 kts 277°
2026-05-09 11:05 53.65363 102.40150 37644 ft 360 kts 277°
2026-05-09 11:06 53.65881 102.36044 37817 ft 361 kts 277°
2026-05-09 11:06 53.66398 102.31935 37993 ft 361 kts 277°
2026-05-09 11:06 53.66919 102.27786 38167 ft 361 kts 277°
2026-05-09 11:06 53.67437 102.23642 38350 ft 361 kts 277°
2026-05-09 11:07 53.67952 102.19508 38507 ft 362 kts 277°
2026-05-09 11:07 53.68470 102.15345 38675 ft 362 kts 277°
2026-05-09 11:07 53.68977 102.11243 38824 ft 362 kts 277°
2026-05-09 11:07 53.69497 102.07037 38978 ft 363 kts 277°
2026-05-09 11:08 53.70005 102.02902 39116 ft 363 kts 277°
2026-05-09 11:08 53.70513 101.98756 39253 ft 363 kts 277°
2026-05-09 11:08 53.71025 101.94573 39378 ft 360 kts 277°
2026-05-09 11:09 53.72038 101.86250 39539 ft 363 kts 277°
2026-05-09 11:09 53.73049 101.77889 39620 ft 370 kts 277°
2026-05-09 11:10 53.74083 101.69284 39612 ft 380 kts 278°
2026-05-09 11:10 53.75129 101.60529 39619 ft 389 kts 278°
2026-05-09 11:11 53.76203 101.51470 39621 ft 399 kts 278°
2026-05-09 11:11 53.77293 101.42223 39610 ft 410 kts 278°
2026-05-09 11:12 53.78399 101.32764 39609 ft 420 kts 277°
2026-05-09 11:12 53.79519 101.23116 39606 ft 431 kts 278°
2026-05-09 11:13 53.80687 101.12976 39608 ft 446 kts 278°
2026-05-09 11:13 53.81876 101.02570 39577 ft 460 kts 278°
2026-05-09 11:14 53.83098 100.91798 39781 ft 467 kts 278°
2026-05-09 11:14 53.83698 100.86431 39897 ft 468 kts 278°
2026-05-09 11:14 53.84300 100.81012 39720 ft 467 kts 277°
2026-05-09 11:15 53.85495 100.70149 39631 ft 473 kts 279°
2026-05-09 11:15 53.86729 100.59203 39602 ft 479 kts 278°
2026-05-09 11:16 53.87949 100.48099 39630 ft 482 kts 278°
2026-05-09 11:16 53.89152 100.37013 39623 ft 485 kts 278°
2026-05-09 11:17 53.90194 100.27341 39642 ft 486 kts 278°
2026-05-09 11:17 53.91398 100.16052 39659 ft 488 kts 278°
2026-05-09 11:18 53.92600 100.04700 39530 ft 492 kts 278°
2026-05-09 11:18 53.93200 99.98942 38764 ft 511 kts 277°
2026-05-09 11:18 53.93815 99.92905 37822 ft 522 kts 278°
2026-05-09 11:18 53.94484 99.86919 36816 ft 523 kts 279°
2026-05-09 11:19 53.95228 99.80911 35600 ft 521 kts 280°
2026-05-09 11:19 53.96004 99.74912 34505 ft 519 kts 280°
2026-05-09 11:19 53.96783 99.68964 33383 ft 521 kts 281°
2026-05-09 11:19 53.97598 99.63069 32258 ft 516 kts 282°
2026-05-09 11:20 53.98393 99.57246 31182 ft 502 kts 282°
2026-05-09 11:20 53.99191 99.51567 29939 ft 480 kts 283°
2026-05-09 11:20 53.99984 99.46317 28665 ft 462 kts 284°
2026-05-09 11:20 54.00847 99.41119 27392 ft 449 kts 286°
2026-05-09 11:21 54.01782 99.36064 26171 ft 461 kts 288°
2026-05-09 11:21 54.02825 99.31000 24979 ft 473 kts 289°
2026-05-09 11:21 54.04001 99.25751 24208 ft 474 kts 289°
2026-05-09 11:21 54.05188 99.20612 23462 ft 468 kts 290°
2026-05-09 11:22 54.06408 99.15468 22840 ft 464 kts 290°
2026-05-09 11:22 54.07641 99.10406 22277 ft 459 kts 291°
2026-05-09 11:22 54.08878 99.05464 21729 ft 455 kts 292°
2026-05-09 11:22 54.10141 99.00564 21199 ft 451 kts 292°
2026-05-09 11:23 54.11418 98.95753 20687 ft 447 kts 293°
2026-05-09 11:23 54.12727 98.90975 20197 ft 443 kts 294°
2026-05-09 11:23 54.13908 98.86204 19680 ft 438 kts 286°
2026-05-09 11:23 54.14485 98.81172 19196 ft 432 kts 277°
2026-05-09 11:24 54.14765 98.76223 18928 ft 401 kts 269°
2026-05-09 11:24 54.14319 98.71568 18179 ft 407 kts 252°
2026-05-09 11:24 54.13385 98.67291 17551 ft 390 kts 250°
2026-05-09 11:24 54.12451 98.63122 16915 ft 368 kts 250°
2026-05-09 11:25 54.11539 98.59047 16245 ft 375 kts 250°
2026-05-09 11:25 54.10594 98.54827 15606 ft 389 kts 250°
2026-05-09 11:25 54.09623 98.50490 15004 ft 397 kts 250°
2026-05-09 11:25 54.08866 98.46018 14496 ft 399 kts 262°
2026-05-09 11:26 54.08537 98.41414 13837 ft 381 kts 269°
2026-05-09 11:26 54.08843 98.37148 13151 ft 353 kts 282°
2026-05-09 11:26 54.09301 98.33181 12521 ft 330 kts 279°
2026-05-09 11:26 54.09675 98.29455 11840 ft 314 kts 278°
2026-05-09 11:27 54.10017 98.25864 11147 ft 303 kts 278°
2026-05-09 11:27 54.10337 98.22399 10445 ft 294 kts 278°
2026-05-09 11:27 54.10644 98.19014 9764 ft 285 kts 278°
2026-05-09 11:27 54.10931 98.15823 9696 ft 257 kts 278°
2026-05-09 11:28 54.11184 98.12992 9691 ft 231 kts 278°
2026-05-09 11:28 54.11418 98.10371 9660 ft 217 kts 277°
2026-05-09 11:28 54.11648 98.07757 9761 ft 237 kts 277°
2026-05-09 11:28 54.11906 98.04836 9730 ft 262 kts 277°
2026-05-09 11:29 54.12191 98.01595 9699 ft 283 kts 278°
2026-05-09 11:29 54.12490 97.98191 9710 ft 299 kts 278°
2026-05-09 11:29 54.12799 97.94655 9760 ft 310 kts 278°
2026-05-09 11:29 54.13121 97.90958 9882 ft 317 kts 278°
2026-05-09 11:30 54.13449 97.87193 9996 ft 323 kts 278°
2026-05-09 11:30 54.13777 97.83391 10099 ft 327 kts 278°
2026-05-09 11:30 54.14109 97.79546 10107 ft 334 kts 278°
2026-05-09 11:30 54.14447 97.75613 10401 ft 329 kts 278°
2026-05-09 11:31 54.14757 97.71988 12130 ft 305 kts 277°
2026-05-09 11:31 54.15032 97.68765 14302 ft 273 kts 278°
2026-05-09 11:31 54.15294 97.65682 15379 ft 267 kts 277°
2026-05-09 11:31 54.15553 97.62619 16357 ft 254 kts 277°
2026-05-09 11:32 54.15792 97.59797 17377 ft 236 kts 277°
2026-05-09 11:32 54.16018 97.57112 18145 ft 226 kts 277°
2026-05-09 11:32 54.16236 97.54510 18683 ft 225 kts 277°
2026-05-09 11:32 54.16459 97.51842 19119 ft 229 kts 277°
2026-05-09 11:33 54.16691 97.49051 19309 ft 245 kts 277°
2026-05-09 11:33 54.16935 97.46109 19492 ft 262 kts 277°
2026-05-09 11:33 54.17216 97.42722 19671 ft 280 kts 277°
2026-05-09 11:34 54.17366 97.40909 19764 ft 290 kts 277°
2026-05-09 11:34 54.17652 97.37432 19943 ft 307 kts 277°
2026-05-09 11:34 54.17956 97.33740 20107 ft 325 kts 276°
2026-05-09 11:35 54.18279 97.29803 20275 ft 342 kts 276°
2026-05-09 11:35 54.18613 97.25701 20493 ft 358 kts 277°
2026-05-09 11:35 54.18961 97.21394 20770 ft 373 kts 277°
2026-05-09 11:35 54.19320 97.16951 21047 ft 386 kts 277°
2026-05-09 11:36 54.19693 97.12316 21307 ft 400 kts 278°
2026-05-09 11:36 54.20070 97.07615 21516 ft 412 kts 278°
2026-05-09 11:36 54.20464 97.02683 21665 ft 423 kts 278°
2026-05-09 11:36 54.20858 96.97696 22176 ft 425 kts 278°
2026-05-09 11:37 54.21240 96.92863 23314 ft 412 kts 278°
2026-05-09 11:37 54.21611 96.88106 24507 ft 398 kts 278°
2026-05-09 11:37 54.21972 96.83475 25149 ft 398 kts 278°
2026-05-09 11:37 54.22335 96.78781 25821 ft 397 kts 278°
2026-05-09 11:38 54.22696 96.74104 26532 ft 395 kts 278°
2026-05-09 11:38 54.23046 96.69538 27227 ft 392 kts 278°
2026-05-09 11:38 54.23402 96.64890 27891 ft 391 kts 279°
2026-05-09 11:38 54.23748 96.60319 28543 ft 389 kts 279°
2026-05-09 11:39 54.24095 96.55741 29211 ft 387 kts 279°
2026-05-09 11:39 54.24438 96.51165 29848 ft 386 kts 279°
2026-05-09 11:39 54.24770 96.46722 30471 ft 384 kts 279°
2026-05-09 11:40 54.25440 96.37702 31770 ft 379 kts 279°
2026-05-09 11:40 54.25769 96.33237 32357 ft 378 kts 279°
2026-05-09 11:40 54.26094 96.28802 32894 ft 377 kts 279°
2026-05-09 11:40 54.26414 96.24419 33447 ft 375 kts 279°
2026-05-09 11:41 54.26735 96.19984 33971 ft 374 kts 279°
2026-05-09 11:41 54.27054 96.15546 34467 ft 373 kts 279°
2026-05-09 11:41 54.27367 96.11208 34909 ft 372 kts 279°
2026-05-09 11:41 54.27679 96.06827 35352 ft 370 kts 279°
2026-05-09 11:42 54.27986 96.02505 35752 ft 368 kts 279°
2026-05-09 11:42 54.28293 95.98158 36083 ft 368 kts 279°
2026-05-09 11:42 54.28602 95.93777 36270 ft 373 kts 279°
2026-05-09 11:42 54.28913 95.89323 36376 ft 379 kts 278°
2026-05-09 11:43 54.29223 95.84853 36506 ft 384 kts 279°
2026-05-09 11:43 54.29534 95.80357 36632 ft 389 kts 279°
2026-05-09 11:43 54.29845 95.75767 36780 ft 394 kts 279°
2026-05-09 11:43 54.30479 95.71156 36910 ft 396 kts 292°
2026-05-09 11:44 54.31618 95.66859 37087 ft 399 kts 295°
2026-05-09 11:44 54.32764 95.62511 37228 ft 403 kts 294°
2026-05-09 11:44 54.33899 95.58114 37347 ft 407 kts 294°
2026-05-09 11:44 54.35043 95.53645 37463 ft 410 kts 294°
2026-05-09 11:45 54.36177 95.49184 37581 ft 412 kts 294°
2026-05-09 11:45 54.37282 95.44826 37698 ft 415 kts 294°
2026-05-09 11:45 54.38418 95.40337 37823 ft 417 kts 294°
2026-05-09 11:45 54.39586 95.35710 37950 ft 418 kts 294°
2026-05-09 11:46 54.40719 95.31213 38091 ft 419 kts 293°
2026-05-09 11:46 54.41880 95.26595 38266 ft 419 kts 293°
2026-05-09 11:46 54.43022 95.22048 38421 ft 419 kts 293°
2026-05-09 11:46 54.44155 95.17523 38575 ft 419 kts 293°
2026-05-09 11:47 54.45303 95.12927 38699 ft 420 kts 293°
2026-05-09 11:47 54.46453 95.08315 38875 ft 419 kts 293°
2026-05-09 11:47 54.47604 95.03690 39018 ft 419 kts 293°
2026-05-09 11:47 54.48735 94.99133 39180 ft 419 kts 293°
2026-05-09 11:48 54.49872 94.94549 39322 ft 419 kts 293°
2026-05-09 11:48 54.50999 94.89988 39446 ft 419 kts 293°
2026-05-09 11:48 54.52108 94.85495 39580 ft 418 kts 293°
2026-05-09 11:48 54.53232 94.80929 39707 ft 417 kts 293°
2026-05-09 11:49 54.54349 94.76389 39823 ft 417 kts 293°
2026-05-09 11:49 54.55473 94.71805 39925 ft 416 kts 293°
2026-05-09 11:49 54.56601 94.67194 39947 ft 418 kts 293°
2026-05-09 11:50 54.58843 94.58009 39945 ft 422 kts 293°
2026-05-09 11:50 54.61125 94.48608 39961 ft 425 kts 293°
2026-05-09 11:51 54.63388 94.39256 39935 ft 428 kts 293°
2026-05-09 11:51 54.65652 94.29852 39933 ft 430 kts 292°
2026-05-09 11:52 54.67937 94.20326 39925 ft 432 kts 292°
2026-05-09 11:52 54.70193 94.10878 39917 ft 433 kts 292°
2026-05-09 11:53 54.72480 94.01256 39933 ft 433 kts 292°
2026-05-09 11:53 54.74740 93.91705 39930 ft 434 kts 292°
2026-05-09 11:54 54.77004 93.82096 39933 ft 435 kts 292°
2026-05-09 11:54 54.79265 93.72459 39933 ft 434 kts 292°
2026-05-09 11:55 54.81498 93.62888 39939 ft 430 kts 292°
2026-05-09 11:56 54.88094 93.34390 39925 ft 431 kts 291°
2026-05-09 11:57 54.90291 93.24812 39928 ft 432 kts 291°
2026-05-09 11:57 54.92482 93.15209 39927 ft 432 kts 291°
2026-05-09 11:58 54.94674 93.05563 39923 ft 431 kts 291°
2026-05-09 11:58 54.96835 92.96016 39918 ft 432 kts 291°
2026-05-09 11:59 54.99024 92.86296 39920 ft 432 kts 291°
2026-05-09 11:59 55.01178 92.76685 39913 ft 434 kts 291°
2026-05-09 12:00 55.03341 92.66994 39911 ft 433 kts 291°
2026-05-09 12:00 55.05501 92.57267 39902 ft 433 kts 291°
2026-05-09 12:01 55.07613 92.47612 39884 ft 431 kts 289°
2026-05-09 12:01 55.09500 92.37820 39887 ft 431 kts 289°
2026-05-09 12:02 55.11408 92.27964 39897 ft 432 kts 288°
2026-05-09 12:02 55.13310 92.18101 39878 ft 432 kts 288°
2026-05-09 12:03 55.15210 92.08195 39891 ft 432 kts 288°
2026-05-09 12:03 55.17107 91.98263 39890 ft 433 kts 288°
2026-05-09 12:04 55.19004 91.88274 39896 ft 433 kts 288°
2026-05-09 12:04 55.20885 91.78320 39889 ft 432 kts 288°
2026-05-09 12:05 55.22750 91.68393 39882 ft 433 kts 288°
2026-05-09 12:05 55.24622 91.58378 39878 ft 433 kts 288°
2026-05-09 12:06 55.26490 91.48326 39868 ft 433 kts 288°
2026-05-09 12:06 55.28347 91.38289 39861 ft 434 kts 288°
2026-05-09 12:07 55.30196 91.28235 39871 ft 435 kts 287°
2026-05-09 12:07 55.32036 91.18179 39867 ft 436 kts 287°
2026-05-09 12:08 55.33879 91.08054 39862 ft 434 kts 287°
2026-05-09 12:08 55.35700 90.97987 39855 ft 433 kts 287°
2026-05-09 12:09 55.37516 90.87896 39860 ft 434 kts 287°
2026-05-09 12:09 55.39318 90.77832 39857 ft 433 kts 287°
2026-05-09 12:10 55.42912 90.57586 39847 ft 434 kts 287°
2026-05-09 12:11 55.44686 90.47503 39834 ft 435 kts 287°
2026-05-09 12:11 55.46456 90.37397 39824 ft 434 kts 287°
2026-05-09 12:12 55.48206 90.27338 39826 ft 433 kts 286°
2026-05-09 12:12 55.49960 90.17209 39827 ft 433 kts 286°
2026-05-09 12:13 55.51722 90.06975 39832 ft 434 kts 286°
2026-05-09 12:13 55.53455 89.96843 39840 ft 434 kts 286°
2026-05-09 12:14 55.55188 89.86661 39841 ft 434 kts 286°
2026-05-09 12:14 55.56905 89.76508 39840 ft 434 kts 286°
2026-05-09 12:15 55.58619 89.66320 39841 ft 434 kts 286°
2026-05-09 12:15 55.60304 89.56242 39837 ft 434 kts 286°
2026-05-09 12:16 55.61969 89.46231 39835 ft 435 kts 286°
2026-05-09 12:16 55.63633 89.36168 39832 ft 434 kts 286°
2026-05-09 12:17 55.65313 89.25944 39835 ft 433 kts 285°
2026-05-09 12:17 55.66976 89.15769 39834 ft 433 kts 285°
2026-05-09 12:18 55.68630 89.05582 39836 ft 433 kts 285°
2026-05-09 12:18 55.70196 88.95374 39830 ft 433 kts 282°
2026-05-09 12:19 55.71538 88.85007 39826 ft 434 kts 282°
2026-05-09 12:19 55.72862 88.74689 39827 ft 434 kts 282°
2026-05-09 12:20 55.74189 88.64267 39822 ft 434 kts 282°
2026-05-09 12:20 55.75508 88.53818 39813 ft 434 kts 282°
2026-05-09 12:21 55.76815 88.43391 39808 ft 434 kts 282°
2026-05-09 12:21 55.78119 88.32916 39802 ft 434 kts 282°
2026-05-09 12:22 55.79417 88.22408 39800 ft 435 kts 281°
2026-05-09 12:22 55.80694 88.11983 39797 ft 434 kts 281°
2026-05-09 12:23 55.81965 88.01527 39794 ft 434 kts 282°
2026-05-09 12:23 55.83204 87.91267 39788 ft 433 kts 281°
2026-05-09 12:24 55.84455 87.80821 39788 ft 433 kts 281°
2026-05-09 12:24 55.85679 87.70534 39782 ft 433 kts 281°
2026-05-09 12:25 55.86883 87.60318 39775 ft 435 kts 281°
2026-05-09 12:25 55.88113 87.49812 39777 ft 436 kts 281°
2026-05-09 12:26 55.89331 87.39326 39779 ft 436 kts 281°
2026-05-09 12:26 55.90543 87.28809 39780 ft 435 kts 281°
2026-05-09 12:27 55.91756 87.18196 39775 ft 436 kts 281°
2026-05-09 12:27 55.92952 87.07639 39777 ft 436 kts 281°
2026-05-09 12:28 55.94145 86.97041 39764 ft 435 kts 281°
2026-05-09 12:28 55.95313 86.86561 39746 ft 435 kts 280°
2026-05-09 12:29 55.96481 86.76003 39747 ft 435 kts 280°
2026-05-09 12:29 55.97633 86.65485 39750 ft 436 kts 280°
2026-05-09 12:30 55.98782 86.54929 39744 ft 436 kts 280°
2026-05-09 12:30 56.00476 86.39181 39733 ft 437 kts 280°
2026-05-09 12:31 56.02161 86.23325 39737 ft 438 kts 279°
2026-05-09 12:32 56.03284 86.12641 39741 ft 437 kts 279°
2026-05-09 12:32 56.04355 86.02349 39755 ft 436 kts 279°
2026-05-09 12:33 56.05451 85.91735 39755 ft 436 kts 279°
2026-05-09 12:33 56.06534 85.81135 39725 ft 436 kts 279°
2026-05-09 12:34 56.07601 85.70610 39724 ft 437 kts 279°
2026-05-09 12:34 56.08666 85.60011 39703 ft 437 kts 279°
2026-05-09 12:35 56.09706 85.49554 39711 ft 436 kts 279°
2026-05-09 12:35 56.10745 85.39022 39698 ft 437 kts 279°
2026-05-09 12:36 56.11784 85.28397 39697 ft 437 kts 278°
2026-05-09 12:36 56.12816 85.17738 39711 ft 437 kts 278°
2026-05-09 12:37 56.13812 85.07349 39709 ft 438 kts 278°
2026-05-09 12:37 56.14823 84.96712 39698 ft 438 kts 278°
2026-05-09 12:38 56.15826 84.86043 39699 ft 437 kts 278°
2026-05-09 12:38 56.16815 84.75432 39682 ft 437 kts 278°
2026-05-09 12:39 56.17778 84.64691 39432 ft 437 kts 277°
2026-05-09 12:39 56.18186 84.59483 39924 ft 424 kts 277°
2026-05-09 12:39 56.18601 84.54212 39726 ft 432 kts 277°
2026-05-09 12:39 56.19078 84.48954 39622 ft 437 kts 281°
2026-05-09 12:40 56.19670 84.43639 39702 ft 436 kts 279°
2026-05-09 12:40 56.20660 84.32949 39748 ft 437 kts 277°
2026-05-09 12:41 56.21623 84.22223 39741 ft 439 kts 277°
2026-05-09 12:41 56.22564 84.11513 39740 ft 441 kts 277°
2026-05-09 12:42 56.23439 84.00585 39734 ft 439 kts 271°
2026-05-09 12:42 56.23589 83.95264 39617 ft 425 kts 279°
2026-05-09 12:42 56.24127 83.90065 39380 ft 423 kts 277°
2026-05-09 12:42 56.24620 83.84909 39678 ft 415 kts 277°
2026-05-09 12:43 56.25054 83.79881 39916 ft 407 kts 276°
2026-05-09 12:43 56.25584 83.70019 40178 ft 385 kts 271°
2026-05-09 12:43 56.25664 83.65289 40346 ft 373 kts 268°
2026-05-09 12:44 56.25616 83.60712 40501 ft 361 kts 265°
2026-05-09 12:44 56.25430 83.56259 40619 ft 350 kts 262°
2026-05-09 12:44 56.25131 83.51967 40654 ft 343 kts 260°
2026-05-09 12:45 56.24285 83.43748 40703 ft 327 kts 256°
2026-05-09 12:45 56.23760 83.39745 40532 ft 327 kts 256°
2026-05-09 12:45 56.23206 83.35752 40208 ft 331 kts 257°
2026-05-09 12:45 56.22979 83.31615 39569 ft 346 kts 269°
2026-05-09 12:46 56.23062 83.27231 39087 ft 355 kts 267°
2026-05-09 12:46 56.22860 83.22782 38734 ft 358 kts 259°
2026-05-09 12:46 56.22372 83.18360 38304 ft 364 kts 256°
2026-05-09 12:46 56.21758 83.13994 37940 ft 369 kts 253°
2026-05-09 12:47 56.21001 83.09543 37595 ft 373 kts 250°
2026-05-09 12:47 56.20129 83.05125 37281 ft 376 kts 248°
2026-05-09 12:47 56.19161 83.00769 37008 ft 378 kts 246°
2026-05-09 12:47 56.18143 82.96594 36768 ft 379 kts 245°
2026-05-09 12:48 56.17026 82.92344 36540 ft 380 kts 243°
2026-05-09 12:48 56.16098 82.87897 36025 ft 389 kts 256°
2026-05-09 12:48 56.15842 82.83009 35529 ft 404 kts 266°
2026-05-09 12:48 56.15871 82.77924 34959 ft 419 kts 268°
2026-05-09 12:49 56.15922 82.72710 34269 ft 431 kts 268°
2026-05-09 12:49 56.15981 82.67300 33359 ft 443 kts 268°
2026-05-09 12:49 56.16035 82.61714 32580 ft 451 kts 268°
2026-05-09 12:49 56.16096 82.56126 31957 ft 454 kts 268°
2026-05-09 12:50 56.16167 82.50450 31377 ft 456 kts 268°
2026-05-09 12:50 56.16185 82.44800 30838 ft 456 kts 264°
2026-05-09 12:50 56.15532 82.39327 30253 ft 452 kts 248°
2026-05-09 12:50 56.14056 82.34348 29665 ft 451 kts 233°
2026-05-09 12:51 56.11937 82.30234 29137 ft 463 kts 220°
2026-05-09 12:51 56.09292 82.27087 28959 ft 467 kts 207°
2026-05-09 12:51 56.06265 82.25041 28811 ft 461 kts 197°
2026-05-09 12:51 56.03268 82.23296 28539 ft 457 kts 205°
2026-05-09 12:52 56.00631 82.20376 28190 ft 455 kts 219°
2026-05-09 12:52 55.98415 82.16246 27738 ft 457 kts 228°
2026-05-09 12:52 55.96144 82.12332 27424 ft 455 kts 216°
2026-05-09 12:52 55.93483 82.09387 27391 ft 447 kts 213°
2026-05-09 12:53 55.91051 82.06164 27410 ft 427 kts 219°
2026-05-09 12:53 55.88768 82.02923 27410 ft 409 kts 219°
2026-05-09 12:53 55.86575 81.99814 27164 ft 398 kts 219°
2026-05-09 12:53 55.84430 81.96763 26619 ft 396 kts 219°
2026-05-09 12:54 55.82290 81.93739 25825 ft 400 kts 219°
2026-05-09 12:54 55.80104 81.90655 24929 ft 405 kts 219°
2026-05-09 12:54 55.77876 81.87520 24036 ft 408 kts 219°
2026-05-09 12:54 55.75669 81.84417 23134 ft 412 kts 219°
2026-05-09 12:55 55.73418 81.81259 22286 ft 412 kts 219°
2026-05-09 12:55 55.71187 81.78135 21423 ft 413 kts 219°
2026-05-09 12:55 55.68950 81.75001 20495 ft 415 kts 219°
2026-05-09 12:55 55.66666 81.71810 19562 ft 416 kts 219°
2026-05-09 12:56 55.64425 81.68685 18930 ft 408 kts 219°
2026-05-09 12:56 55.62214 81.65610 18432 ft 399 kts 219°
2026-05-09 12:56 55.60054 81.62608 17963 ft 391 kts 219°
2026-05-09 12:56 55.57943 81.59676 17817 ft 377 kts 219°
2026-05-09 12:57 55.55909 81.56859 17772 ft 362 kts 220°
2026-05-09 12:57 55.53987 81.54192 17708 ft 350 kts 220°
2026-05-09 12:57 55.52064 81.51531 17447 ft 345 kts 220°
2026-05-09 12:57 55.50178 81.48944 17728 ft 346 kts 219°
2026-05-09 12:58 55.48404 81.46529 19512 ft 305 kts 219°
2026-05-09 12:58 55.46945 81.44535 21351 ft 249 kts 219°
2026-05-09 12:58 55.45680 81.42793 22039 ft 221 kts 221°
2026-05-09 12:58 55.44514 81.41154 21975 ft 208 kts 223°
2026-05-09 12:59 55.43382 81.39555 21429 ft 213 kts 223°
2026-05-09 12:59 55.42213 81.37921 20634 ft 220 kts 223°
2026-05-09 12:59 55.41013 81.36257 19686 ft 223 kts 223°
2026-05-09 12:59 55.39841 81.34649 19181 ft 210 kts 222°
2026-05-09 13:00 55.38757 81.33158 18900 ft 191 kts 223°
2026-05-09 13:00 55.37739 81.31752 18551 ft 180 kts 223°
2026-05-09 13:00 55.36769 81.30406 18093 ft 177 kts 224°
2026-05-09 13:00 55.35811 81.29082 17632 ft 175 kts 224°
2026-05-09 13:01 55.34868 81.27782 17187 ft 174 kts 224°
2026-05-09 13:01 55.33923 81.26482 16737 ft 173 kts 225°
2026-05-09 13:01 55.32980 81.25185 16296 ft 174 kts 224°
2026-05-09 13:01 55.32018 81.23872 15975 ft 176 kts 224°
2026-05-09 13:02 55.31040 81.22539 15723 ft 181 kts 224°
2026-05-09 13:02 55.29907 81.21545 15612 ft 185 kts 202°
2026-05-09 13:02 55.28731 81.20824 15663 ft 171 kts 224°
2026-05-09 13:02 55.27890 81.19394 15536 ft 171 kts 231°
2026-05-09 13:03 55.27027 81.17959 15424 ft 172 kts 228°
2026-05-09 13:03 55.26128 81.16564 15352 ft 171 kts 227°
2026-05-09 13:03 55.25219 81.15202 15257 ft 170 kts 227°
2026-05-09 13:03 55.24303 81.13863 15168 ft 170 kts 226°
2026-05-09 13:04 55.23388 81.12551 15086 ft 170 kts 226°
2026-05-09 13:04 55.22465 81.11243 15002 ft 171 kts 226°
2026-05-09 13:04 55.21538 81.09940 14914 ft 170 kts 226°
2026-05-09 13:04 55.20607 81.08640 14807 ft 170 kts 226°
2026-05-09 13:05 55.19678 81.07346 14694 ft 170 kts 226°
2026-05-09 13:05 55.18760 81.06075 14672 ft 169 kts 226°
2026-05-09 13:05 55.17833 81.04791 14617 ft 169 kts 225°
2026-05-09 13:05 55.16879 81.03482 14516 ft 183 kts 221°
2026-05-09 13:06 55.15825 81.02065 14254 ft 196 kts 224°
2026-05-09 13:06 55.14730 81.00552 13804 ft 208 kts 223°
2026-05-09 13:06 55.13389 80.99375 13226 ft 228 kts 199°
2026-05-09 13:06 55.11752 80.99422 12645 ft 253 kts 174°
2026-05-09 13:07 55.10099 81.00835 11910 ft 278 kts 149°
2026-05-09 13:07 55.08836 81.03436 11289 ft 294 kts 126°
2026-05-09 13:07 55.08187 81.06889 10727 ft 305 kts 103°
2026-05-09 13:07 55.08315 81.10536 10352 ft 307 kts 83°
2026-05-09 13:08 55.08655 81.14166 10136 ft 292 kts 97°
2026-05-09 13:08 55.08177 81.17402 10171 ft 266 kts 123°
2026-05-09 13:08 55.07416 81.20301 10164 ft 259 kts 119°
2026-05-09 13:08 55.06808 81.23214 10129 ft 253 kts 117°
2026-05-09 13:09 55.06252 81.26141 9785 ft 260 kts 115°
2026-05-09 13:09 55.05727 81.29162 9487 ft 252 kts 111°
2026-05-09 13:09 55.05275 81.31987 9166 ft 237 kts 111°
2026-05-09 13:09 55.04849 81.34626 8919 ft 219 kts 110°
2026-05-09 13:10 55.04445 81.37121 8719 ft 210 kts 112°
2026-05-09 13:10 55.04042 81.39552 8426 ft 205 kts 112°
2026-05-09 13:10 55.03647 81.41924 8021 ft 210 kts 113°
2026-05-09 13:10 55.03228 81.44430 7454 ft 218 kts 112°
2026-05-09 13:11 55.02802 81.46985 6866 ft 230 kts 111°
2026-05-09 13:11 55.02343 81.49739 6236 ft 241 kts 111°
2026-05-09 13:11 55.01873 81.52580 5769 ft 242 kts 110°
2026-05-09 13:11 55.01411 81.55375 5446 ft 238 kts 110°
2026-05-09 13:12 55.01038 81.58155 5112 ft 238 kts 101°
2026-05-09 13:12 55.00914 81.60977 4802 ft 235 kts 98°
2026-05-09 13:12 55.00798 81.63823 4484 ft 233 kts 98°
2026-05-09 13:12 55.00686 81.66627 4168 ft 231 kts 98°
2026-05-09 13:13 55.00567 81.69535 3741 ft 248 kts 98°
2026-05-09 13:13 55.00444 81.72600 3395 ft 262 kts 98°
2026-05-09 13:13 55.00317 81.75817 3106 ft 272 kts 97°
2026-05-09 13:13 55.00184 81.79138 2822 ft 280 kts 97°
2026-05-09 13:14 55.00047 81.82568 2527 ft 285 kts 97°
2026-05-09 13:14 54.99906 81.86070 2241 ft 290 kts 97°
2026-05-09 13:16 54.98988 82.08418 1890 ft 216 kts 98°
2026-05-09 13:16 54.98883 82.10901 1923 ft 198 kts 102°
2026-05-09 13:16 54.98754 82.13252 2067 ft 191 kts 106°
2026-05-09 13:16 54.98621 82.15578 1921 ft 197 kts 104°
2026-05-09 13:17 54.98512 82.17941 1903 ft 194 kts 104°
2026-05-09 13:17 54.98409 82.20281 1896 ft 192 kts 104°
2026-05-09 13:17 54.98307 82.22585 1898 ft 189 kts 104°
2026-05-09 13:17 54.98109 82.24846 1896 ft 187 kts 109°
2026-05-09 13:18 54.98003 82.27103 1882 ft 188 kts 101°
2026-05-09 13:18 54.98040 82.29384 1892 ft 187 kts 96°
2026-05-09 13:18 54.98158 82.31640 1906 ft 186 kts 93°
2026-05-09 13:18 54.98322 82.33876 1905 ft 186 kts 92°
2026-05-09 13:19 54.98507 82.36052 1881 ft 178 kts 91°
2026-05-09 13:19 54.98696 82.38132 1877 ft 171 kts 91°
2026-05-09 13:19 54.98891 82.40180 1902 ft 170 kts 90°
2026-05-09 13:19 54.99085 82.42191 1910 ft 171 kts 90°
2026-05-09 13:20 54.99283 82.44263 1907 ft 170 kts 91°
2026-05-09 13:20 54.99398 82.46253 1921 ft 159 kts 90°
2026-05-09 13:20 54.99476 82.48166 1886 ft 160 kts 86°
2026-05-09 13:20 54.99669 82.50097 1816 ft 162 kts 83°
2026-05-09 13:21 54.99893 82.52039 1626 ft 170 kts 80°
2026-05-09 13:21 55.00182 82.54078 1427 ft 173 kts 88°
2026-05-09 13:21 55.00371 82.56142 1268 ft 173 kts 84°
2026-05-09 13:21 55.00573 82.58233 943 ft 182 kts 89°
2026-05-09 13:22 55.00791 82.60422 635 ft 184 kts 88°
2026-05-09 13:22 55.00990 82.62481 410 ft 182 kts 80°
2026-05-09 13:22 55.01208 82.64551 377 ft 156 kts 81°
2026-05-09 13:23 55.01284 82.66612 358 ft 13 kts 169°
2026-05-09 13:23 55.01218 82.66633 358 ft 0 kts 169°
2026-05-09 13:24 55.01192 82.66640 358 ft 10 kts 172°
2026-05-09 13:24 55.01128 82.66654 358 ft 7 kts 181°
2026-05-09 13:25 55.01086 82.66625 359 ft 5 kts 226°
2026-05-09 13:25 55.01086 82.66579 359 ft 3 kts 308°
2026-05-09 13:25 55.01107 82.66562 359 ft 0 kts 346°